| time (UTC) | temp C | wind direction | speed KPH | gust KPH | rain 1hr cm | rain 24hr cm | rain mn cm | humidity % | barometer mb |
| 20260510171340 | 17 | 341 | 0.0 | 0.0 | 0.00 | 0.00 | 0.03 | 70 | 1009.1 |
| 20260510170839 | 17 | 320 | 0.0 | 0.0 | 0.00 | 0.00 | 0.03 | 72 | 1009.1 |
| 20260510170342 | 18 | 275 | 0.0 | 0.0 | 0.00 | 0.00 | 0.03 | 74 | 1009.1 |
| 20260510165840 | 17 | 354 | 0.0 | 0.0 | 0.00 | 0.00 | 0.03 | 75 | 1009.1 |
| 20260510165339 | 18 | 300 | 0.0 | 0.0 | 0.00 | 0.00 | 0.03 | 73 | 1009.1 |
| 20260510164839 | 19 | 284 | 0.0 | 0.0 | 0.00 | 0.00 | 0.03 | 72 | 1009.1 |
| 20260510164339 | 18 | 254 | 0.0 | 0.0 | 0.00 | 0.00 | 0.03 | 72 | 1009.1 |
| 20260510163840 | 18 | 201 | 0.0 | 0.0 | 0.00 | 0.00 | 0.03 | 73 | 1009.1 |
| 20260510163339 | 18 | 247 | 0.0 | 0.0 | 0.00 | 0.00 | 0.03 | 75 | 1009.1 |
| 20260510162839 | 17 | 284 | 0.0 | 0.0 | 0.00 | 0.00 | 0.03 | 76 | 1009.1 |
| 20260510162341 | 17 | 233 | 0.0 | 0.0 | 0.00 | 0.00 | 0.03 | 74 | 1009.1 |
| 20260510161839 | 17 | 260 | 0.0 | 0.0 | 0.00 | 0.00 | 0.03 | 75 | 1009.1 |
| 20260510161339 | 17 | 223 | 0.0 | 0.0 | 0.00 | 0.00 | 0.03 | 77 | 1009.1 |
| 20260510160839 | 17 | 60 | 0.0 | 0.0 | 0.00 | 0.00 | 0.03 | 74 | 1009.1 |
| 20260510160339 | 17 | 227 | 0.0 | 0.0 | 0.00 | 0.00 | 0.03 | 76 | 1009.1 |
| 20260510155839 | 16 | 310 | 0.0 | 0.0 | 0.00 | 0.00 | 0.03 | 77 | 1009.1 |
| 20260510155340 | 17 | 265 | 0.0 | 0.0 | 0.00 | 0.00 | 0.03 | 77 | 1009.5 |
| 20260510154839 | 16 | 251 | 0.0 | 0.0 | 0.00 | 0.00 | 0.03 | 79 | 1009.5 |
| 20260510154339 | 16 | 259 | 0.0 | 0.0 | 0.00 | 0.00 | 0.03 | 78 | 1009.5 |
| 20260510153839 | 16 | 25 | 0.0 | 0.0 | 0.00 | 0.00 | 0.03 | 79 | 1009.5 |
| 20260510153339 | 16 | 313 | 0.0 | 0.0 | 0.00 | 0.00 | 0.03 | 79 | 1009.5 |
| 20260510152840 | 16 | 53 | 0.0 | 0.0 | 0.00 | 0.00 | 0.03 | 81 | 1009.5 |
| 20260510152340 | 15 | 306 | 0.0 | 0.0 | 0.00 | 0.00 | 0.03 | 81 | 1009.1 |
| 20260510151840 | 16 | 255 | 0.0 | 0.0 | 0.00 | 0.00 | 0.03 | 78 | 1009.1 |
| 20260510151339 | 16 | 256 | 0.0 | 0.0 | 0.00 | 0.00 | 0.03 | 79 | 1009.1 |
| 20260510150839 | 15 | 219 | 0.0 | 0.0 | 0.00 | 0.00 | 0.03 | 80 | 1009.1 |
| 20260510150340 | 15 | 255 | 0.0 | 0.0 | 0.00 | 0.00 | 0.03 | 83 | 1009.1 |
| 20260510145839 | 14 | 197 | 0.0 | 0.0 | 0.00 | 0.00 | 0.03 | 84 | 1009.1 |
| 20260510145339 | 15 | 133 | 0.0 | 0.0 | 0.00 | 0.00 | 0.03 | 85 | 1009.5 |
| 20260510144839 | 14 | 252 | 0.0 | 0.0 | 0.00 | 0.00 | 0.03 | 85 | 1009.5 |
| 20260510144339 | 14 | 198 | 0.0 | 0.0 | 0.00 | 0.00 | 0.03 | 86 | 1009.5 |
| 20260510143839 | 14 | 306 | 0.0 | 0.0 | 0.00 | 0.00 | 0.03 | 87 | 1009.5 |
| 20260510143340 | 14 | 220 | 0.0 | 0.0 | 0.00 | 0.00 | 0.03 | 85 | 1009.5 |
| 20260510142840 | 14 | 32 | 0.0 | 0.0 | 0.00 | 0.00 | 0.03 | 85 | 1009.1 |
| 20260510142347 | 13 | 225 | 0.0 | 0.0 | 0.00 | 0.00 | 0.03 | 85 | 1009.5 |
| 20260510141840 | 13 | 203 | 0.0 | 0.0 | 0.00 | 0.00 | 0.03 | 85 | 1009.5 |
| 20260510141340 | 13 | 317 | 0.0 | 0.0 | 0.00 | 0.00 | 0.03 | 85 | 1009.1 |
| 20260510140839 | 13 | 176 | 0.0 | 0.0 | 0.00 | 0.00 | 0.03 | 87 | 1009.5 |
| 20260510140339 | 13 | 250 | 0.0 | 0.0 | 0.00 | 0.00 | 0.03 | 88 | 1009.1 |
| 20260510135839 | 13 | 254 | 0.0 | 0.0 | 0.00 | 0.00 | 0.03 | 89 | 1009.5 |
| 20260510135339 | 13 | 9 | 0.0 | 0.0 | 0.00 | 0.00 | 0.03 | 89 | 1009.5 |
| 20260510134839 | 13 | 9 | 0.0 | 0.0 | 0.00 | 0.00 | 0.03 | 90 | 1009.5 |
| 20260510134339 | 12 | 9 | 0.0 | 0.0 | 0.00 | 0.00 | 0.03 | 92 | 1009.5 |
| 20260510133848 | 12 | 110 | 0.0 | 0.0 | 0.00 | 0.00 | 0.03 | 92 | 1009.5 |
| 20260510132339 | 12 | 158 | 0.0 | 0.0 | 0.00 | 0.00 | 0.03 | 92 | 1009.5 |
| 20260510131839 | 12 | 175 | 0.0 | 0.0 | 0.00 | 0.00 | 0.03 | 92 | 1009.5 |
| 20260510131340 | 12 | 175 | 0.0 | 0.0 | 0.00 | 0.00 | 0.03 | 92 | 1009.5 |
| 20260510130839 | 12 | 169 | 0.0 | 0.0 | 0.00 | 0.00 | 0.03 | 92 | 1009.5 |
| 20260510130339 | 12 | 302 | 0.0 | 0.0 | 0.00 | 0.00 | 0.03 | 92 | 1009.5 |
| 20260510125841 | 13 | 269 | 0.0 | 0.0 | 0.00 | 0.00 | 0.03 | 92 | 1009.1 |
| 20260510125340 | 12 | 241 | 0.0 | 0.0 | 0.00 | 0.00 | 0.03 | 93 | 1009.1 |
| 20260510124339 | 12 | 96 | 0.0 | 0.0 | 0.00 | 0.00 | 0.03 | 94 | 1009.5 |
| 20260510122840 | 10 | 96 | 0.0 | 0.0 | 0.00 | 0.00 | 0.03 | 100 | 1009.5 |
| 20260510115840 | 10 | 96 | 0.0 | 0.0 | 0.00 | 0.00 | 0.03 | 100 | 1009.5 |
| 20260510114840 | 10 | 262 | 0.0 | 0.0 | 0.00 | 0.00 | 0.03 | 100 | 1009.5 |
| 20260510103840 | 10 | 262 | 0.0 | 0.0 | 0.00 | 0.00 | 0.03 | 100 | 1008.5 |
| 20260510103339 | 10 | 306 | 0.0 | 0.0 | 0.00 | 0.00 | 0.03 | 100 | 1008.1 |
| 20260510100339 | 10 | 306 | 0.0 | 0.0 | 0.00 | 0.00 | 0.03 | 100 | 1007.8 |
| 20260510090839 | 10 | 306 | 0.0 | 0.0 | 0.00 | 0.00 | 0.03 | 100 | 1007.1 |
| 20260510084839 | 10 | 306 | 0.0 | 0.0 | 0.00 | 0.00 | 0.03 | 100 | 1007.8 |
| 20260510024339 | 9 | 275 | 0.0 | 0.0 | 0.00 | 0.00 | 0.86 | 98 | 1008.8 |
| 20260510021339 | 9 | 287 | 0.0 | 0.0 | 0.00 | 0.00 | 0.86 | 98 | 1009.1 |
| 20260510020840 | 9 | 264 | 0.0 | 0.0 | 0.00 | 0.00 | 0.86 | 98 | 1008.8 |
| 20260510020339 | 9 | 247 | 0.0 | 0.0 | 0.00 | 0.00 | 0.86 | 98 | 1008.8 |
| 20260510015839 | 9 | 289 | 0.0 | 0.0 | 0.00 | 0.00 | 0.86 | 98 | 1008.8 |
| 20260510015339 | 9 | 300 | 0.0 | 0.0 | 0.00 | 0.00 | 0.86 | 98 | 1009.1 |
| 20260510014839 | 9 | 263 | 0.0 | 0.0 | 0.00 | 0.00 | 0.86 | 98 | 1008.8 |
| 20260510014339 | 9 | 259 | 0.0 | 0.0 | 0.00 | 0.00 | 0.86 | 98 | 1008.8 |
| 20260510013839 | 9 | 259 | 0.0 | 0.0 | 0.00 | 0.00 | 0.86 | 98 | 1008.8 |
| 20260510013339 | 9 | 278 | 0.0 | 0.0 | 0.00 | 0.00 | 0.86 | 98 | 1008.8 |
| 20260510012840 | 9 | 272 | 0.0 | 0.0 | 0.00 | 0.00 | 0.86 | 98 | 1008.8 |
| 20260510011839 | 9 | 279 | 0.0 | 0.0 | 0.00 | 0.00 | 0.86 | 98 | 1008.8 |
| 20260510011340 | 9 | 269 | 0.0 | 0.0 | 0.00 | 0.00 | 0.86 | 97 | 1008.8 |
| 20260509215339 | 9 | 269 | 0.0 | 0.0 | 0.00 | 0.00 | 0.86 | 97 | 1008.5 |
| 20260509214839 | 9 | 269 | 0.0 | 0.0 | 0.00 | 0.00 | 0.86 | 97 | 1008.5 |
| 20260509214339 | 9 | 261 | 0.0 | 0.0 | 0.00 | 0.00 | 0.86 | 97 | 1008.5 |
| 20260509213839 | 9 | 334 | 0.0 | 0.0 | 0.00 | 0.00 | 0.86 | 97 | 1008.5 |
| 20260509213340 | 9 | 345 | 0.0 | 0.0 | 0.00 | 0.00 | 0.86 | 97 | 1008.8 |
| 20260509212840 | 10 | 285 | 0.0 | 0.0 | 2.16 | 0.00 | 0.86 | 97 | 1008.8 |
| 20260509201840 | 9 | 323 | 0.0 | 0.0 | 0.00 | 0.00 | 0.79 | 97 | 1008.8 |
| 20260509195839 | 9 | 323 | 0.0 | 0.0 | 0.00 | 0.00 | 0.79 | 97 | 1009.1 |
| 20260509192839 | 9 | 272 | 0.0 | 0.0 | 0.00 | 0.00 | 0.74 | 97 | 1009.5 |
| 20260509192339 | 9 | 272 | 0.0 | 0.0 | 0.00 | 0.00 | 0.74 | 97 | 1009.5 |
| 20260509191840 | 9 | 271 | 0.0 | 0.0 | 1.60 | 0.00 | 0.74 | 97 | 1009.5 |
| 20260509190341 | 8 | 77 | 0.0 | 0.0 | 0.00 | 0.00 | 0.69 | 97 | 1009.8 |
| 20260509185839 | 8 | 312 | 0.0 | 0.0 | 0.30 | 0.00 | 0.69 | 97 | 1009.8 |
| 20260509185339 | 8 | 168 | 0.0 | 0.0 | 0.00 | 0.00 | 0.66 | 97 | 1009.8 |
| 20260509184845 | 8 | 289 | 0.0 | 0.0 | 0.30 | 0.00 | 0.66 | 97 | 1009.8 |
| 20260509184339 | 8 | 223 | 0.0 | 0.0 | 0.00 | 0.00 | 0.64 | 97 | 1009.8 |
| 20260509183841 | 8 | 284 | 0.0 | 0.0 | 0.00 | 0.00 | 0.64 | 97 | 1009.8 |
| 20260509183339 | 8 | 315 | 0.0 | 0.0 | 0.00 | 0.00 | 0.64 | 97 | 1009.8 |
| 20260509182839 | 8 | 55 | 0.0 | 0.0 | 0.30 | 0.00 | 0.64 | 97 | 1009.8 |
| 20260509182339 | 8 | 259 | 0.0 | 0.0 | 0.00 | 0.00 | 0.61 | 97 | 1010.2 |
| 20260509181840 | 8 | 292 | 0.0 | 0.0 | 0.30 | 0.00 | 0.61 | 97 | 1010.2 |
| 20260509181339 | 8 | 264 | 0.0 | 0.0 | 0.00 | 0.00 | 0.58 | 97 | 1010.2 |
| 20260509180839 | 8 | 236 | 0.0 | 0.0 | 0.56 | 0.00 | 0.58 | 97 | 1010.2 |
| 20260509175339 | 8 | 292 | 0.0 | 0.0 | 0.00 | 0.00 | 0.56 | 97 | 1010.5 |
| 20260509173339 | 8 | 336 | 0.0 | 0.0 | 3.07 | 0.00 | 0.48 | 97 | 1010.5 |